Location: La Coruña
(43.3623°N, 8.4115°W)
Time: 19:48:59
(UTC+01:00)

STARLINK-1124 - Pass Details

Date: 23 January 2020
Orbit: 348 x 351 km, 53.0° (Epoch: 18 February)

Event Time Altitude Azimuth Distance (km) Brightness Sun altitude
Rises 19:12:26 0° 285° (WNW) 2,161 7.7 -7.5°
Reaches altitude 10° 19:15:03 10° 311° (NW) 1,321 6.0 -7.9°
Maximum altitude 19:16:51 15° 349° (N) 1,076 5.0 -8.2°
Drops below altitude 10° 19:18:40 10° 27° (NNE) 1,323 5.2 -8.5°
Enters shadow 19:19:12 - 34° (NE) 1,467 5.3 -8.6°
